Regional Weather Roundup
Issued by NWS Glasgow, MT

Home | Current Version | Previous Version | Text Only | Print | Product List | Glossary On
Versions: 1 2 3 4 5 6 7 8 9 10 11 12 13 14 15 16 17 18 19 20 21 22 23 24 25 26 27 28 29 30 31 32 33 34 35 36 37 38 39 40 41 42 43 44 45 46 47
000
ASUS45 KGGW 291615
RWRGGW
HOURLY WEATHER ROUNDUP FOR NORTHEAST MONTANA
NATIONAL WEATHER SERVICE GLASGOW MONTANA
900 AM MST THU JAN 29 2015

NOTE: "FAIR" INDICATES FEW OR NO CLOUDS BELOW 12,000 FEET WITH NO
SIGNIFICANT WEATHER AND/OR OBSTRUCTIONS TO VISISBILITY.

NORTHEAST MONTANA


CITY           SKY/WX    TMP DP  RH WIND       PRES   REMARKS
GLASGOW        FOG       24  22  91 SE8       30.45R VSB<1/4
PLENTYWOOD       N/A     19  17  92 N6          N/A
WOLF POINT     FOG       22  21  96 SW3       30.48S VSB 1/4
JORDAN           N/A     24  22  91 CALM      30.43S
WINNETT          N/A     29  26  89 NE1         N/A
SIDNEY         CLOUDY    27  19  74 CALM      30.50F
GLENDIVE       CLOUDY    27  25  93 SW5       30.48S
SCOBEY           N/A     20  15  81 CALM      30.39S

FORT PECK REPORTS


CITY           SKY/WX    TMP DP  RH WIND       PRES   REMARKS
FORT PECK        N/A     26  26 100 S3          N/A
THE PINES        N/A     27  25  92 NW3         N/A

SOUTHEAST MONTANA


CITY           SKY/WX    TMP DP  RH WIND       PRES   REMARKS
BILLINGS       SUNNY     29  24  82 SW9       30.41R
MILES CITY     SUNNY     23  21  92 SE9       30.47S
BAKER          FOG       25  24  96 W13       30.46S VSB 3/4
LIVINGSTON     PTCLDY    28  20  71 NW20G30   30.38R

CENTRAL MONTANA


CITY           SKY/WX    TMP DP  RH WIND       PRES   REMARKS
HAVRE          FOG       21  19  92 CALM      30.37S VSB 1/4
LEWISTOWN      CLEAR     27  22  81 SE7       30.35S
GREAT FALLS    CLEAR     32  25  75 S10       30.32S
CUT BANK       CLEAR     21  20  96 SW3       30.29F
HELENA         CLEAR     27  22  81 CALM      30.42S
BUTTE          CLEAR     17  15  92 CALM      30.41R
BOZEMAN        CLEAR     25  21  85 S3        30.43S

WESTERN MONTANA


CITY           SKY/WX    TMP DP  RH WIND       PRES   REMARKS
MISSOULA       FOG       18  16  92 W3        30.47S VSB<1/4
KALISPELL      NOT AVBL

NORTH DAKOTA


CITY           SKY/WX    TMP DP  RH WIND       PRES   REMARKS
WILLISTON      CLOUDY    22  17  81 NW9       30.49S
DICKINSON      SUNNY     28  22  78 W16       30.42R
MINOT          LGT SNOW  18  12  77 NW18      30.48R
BISMARCK       CLOUDY    27  19  72 N14G24    30.47R

SOUTHERN SASKATCHEWAN


CITY           SKY/WX    TMP DP  RH WIND       PRES   REMARKS
REGINA         LGT SNOW  12  10  92 N5        30.48S FOG
MOOSE JAW      FLURRIES  16  12  86 CALM      30.48S
ESTEVAN        LGT SNOW  16  12  86 N9        30.48S DRFTSNOW
SWIFT CURRENT  MOCLDY    18  16  93 SE9       30.36F




USA.gov is the U.S. government's official web portal to all federal, state and local government web resources and services.